FW4637 Weather Reports


Display with metric or nautical units.
time (UTC)temp
F
wind
direction
speed
MPH
gust
MPH
rain 1hr
in
rain 24hr
in
rain mn
in
humidity
%
barometer
mb
20260506094503 56 329 0.0 5.0 0.00 0.01 0.00 86 1018.8
20260506094003 56 329 0.0 5.0 0.00 0.01 0.00 86 1018.8
20260506093503 56 329 0.0 2.0 0.00 0.01 0.00 86 1018.8
20260506093003 56 299 0.0 2.0 0.00 0.01 0.00 85 1018.8
20260506092503 56 277 0.0 1.0 0.00 0.02 0.00 85 1018.7
20260506092003 56 273 0.0 1.0 0.00 0.02 0.00 85 1018.6
20260506091716 56 262 0.0 2.0 0.00 0.02 0.00 85 1018.6
20260506091003 56 259 0.0 2.0 0.00 0.02 0.00 84 1018.5
20260506090503 56 262 0.0 2.0 0.00 0.03 0.00 84 1018.7
20260506090003 56 269 0.0 1.0 0.00 0.03 0.00 84 1018.6
20260506085503 56 269 0.0 1.0 0.00 0.03 0.00 84 1018.7
20260506085003 56 269 0.0 1.0 0.00 0.03 0.00 83 1018.6
20260506084503 56 299 0.0 2.0 0.00 0.03 0.00 83 1018.7
20260506084003 56 299 0.0 2.0 0.00 0.03 0.00 83 1018.7
20260506083503 56 263 0.0 4.0 0.00 0.03 0.00 84 1018.7
20260506083003 56 268 0.0 4.0 0.00 0.03 0.00 84 1018.7
20260506082503 56 290 0.0 2.0 0.00 0.03 0.00 84 1018.7
20260506082003 56 305 0.0 2.0 0.00 0.03 0.00 84 1018.7
20260506081503 56 264 0.0 2.0 0.00 0.04 0.00 84 1018.7
20260506081003 56 259 0.0 2.0 0.00 0.04 0.00 84 1018.7
20260506080503 56 246 0.0 2.0 0.00 0.05 0.00 84 1018.8
20260506073503 56 269 0.0 3.0 0.00 0.08 0.00 85 1018.4
20260506073003 56 274 0.0 2.0 0.00 0.08 0.00 85 1018.4
20260506072717 56 278 0.0 2.0 0.00 0.08 0.00 85 1018.4
20260506072003 56 260 0.0 2.0 0.00 0.08 0.00 86 1018.4
20260506071715 56 261 1.0 3.0 0.00 0.09 0.00 86 1018.3
20260506071003 56 270 0.0 3.0 0.00 0.09 0.00 87 1018.2
20260506070718 56 278 0.0 2.0 0.00 0.09 0.00 87 1018.3
20260506070219 56 276 1.0 3.0 0.00 0.09 0.00 87 1018.3
20260506062503 56 251 0.0 2.0 0.00 0.09 0.09 86 1017.8
20260506062218 56 271 0.0 2.0 0.00 0.09 0.09 86 1017.8
20260506061503 56 273 0.0 2.0 0.00 0.10 0.09 86 1017.7
20260506061216 56 273 0.0 2.0 0.00 0.10 0.09 86 1017.7
20260506060503 57 267 0.0 2.0 0.00 0.10 0.09 86 1017.6
20260506051216 57 269 2.0 5.0 0.00 0.13 0.09 87 1017.4
20260506050503 57 269 1.0 5.0 0.00 0.13 0.09 87 1017.5
20260506050218 57 266 1.0 4.0 0.00 0.13 0.09 87 1017.5
20260506045003 56 265 1.0 5.0 0.00 0.14 0.09 88 1017.2
20260506044716 56 265 1.0 4.0 0.00 0.14 0.09 88 1017.3
20260506044218 56 262 0.0 2.0 0.00 0.15 0.09 88 1017.2
20260506043503 56 288 1.0 5.0 0.00 0.15 0.09 88 1017.2
20260506043003 56 269 0.0 5.0 0.00 0.15 0.09 87 1017.2
20260506042503 56 262 0.0 4.0 0.00 0.15 0.09 87 1017.2
20260506042003 56 259 1.0 4.0 0.00 0.15 0.09 87 1017.1
20260506041718 57 259 1.0 4.0 0.00 0.15 0.09 87 1017.2
20260506041003 57 249 1.0 4.0 0.00 0.15 0.09 87 1017.0
20260506040503 57 233 1.0 3.0 0.00 0.15 0.09 87 1016.9
20260506040003 57 263 1.0 5.0 0.00 0.15 0.09 86 1016.8
20260506035503 57 266 2.0 6.0 0.00 0.15 0.09 86 1016.7
20260506035219 57 265 2.0 6.0 0.00 0.15 0.09 86 1016.7
20260506034503 57 253 1.0 5.0 0.00 0.15 0.09 85 1016.6
20260506034003 57 272 1.0 5.0 0.00 0.15 0.09 85 1016.6
20260506033503 57 281 1.0 5.0 0.00 0.15 0.09 85 1016.4
20260506033003 57 274 1.0 6.0 0.00 0.15 0.09 85 1016.4
20260506032503 57 273 2.0 7.0 0.00 0.15 0.09 85 1016.4
20260506032003 58 267 2.0 7.0 0.00 0.15 0.09 84 1016.3
20260506031718 58 263 2.0 7.0 0.00 0.15 0.09 84 1016.3
20260506031219 58 258 2.0 6.0 0.00 0.15 0.09 84 1016.3
20260506030503 58 265 2.0 6.0 0.00 0.15 0.09 83 1016.1
20260506030217 58 263 2.0 8.0 0.00 0.15 0.09 83 1016.1
20260506025503 58 262 2.0 8.0 0.00 0.15 0.09 83 1016.0
20260506025003 58 272 2.0 7.0 0.00 0.15 0.09 83 1016.0
20260506024503 58 270 3.0 8.0 0.00 0.15 0.09 83 1016.0
20260506024003 58 267 2.0 8.0 0.00 0.15 0.09 83 1016.1
20260506023503 58 271 2.0 7.0 0.00 0.15 0.09 83 1016.0
20260506023003 58 269 3.0 9.0 0.00 0.15 0.09 82 1015.9
20260506022503 59 259 2.0 9.0 0.00 0.15 0.09 81 1015.8
20260506022217 59 267 2.0 6.0 0.00 0.15 0.09 81 1015.8
20260506021503 59 260 2.0 8.0 0.00 0.15 0.09 81 1015.5
20260506021003 59 259 2.0 8.0 0.00 0.15 0.09 81 1015.4
20260506020503 60 270 2.0 10.0 0.00 0.15 0.09 80 1015.5
20260506020003 60 272 3.0 11.0 0.00 0.15 0.09 79 1015.5
20260506015503 60 274 3.0 11.0 0.00 0.15 0.09 79 1015.4
20260506015003 61 288 3.0 9.0 0.00 0.15 0.09 77 1015.4
20260506014503 61 293 2.0 6.0 0.00 0.15 0.09 77 1015.4
20260506014003 61 270 3.0 6.0 0.00 0.15 0.09 76 1015.5
20260506013717 61 269 3.0 7.0 0.00 0.15 0.09 76 1015.4
20260506013003 62 262 2.0 8.0 0.00 0.15 0.09 75 1015.5
20260506012503 63 258 2.0 9.0 0.00 0.15 0.09 74 1015.5
20260506012003 62 268 3.0 9.0 0.00 0.15 0.09 74 1015.6
20260506011503 63 264 3.0 9.0 0.00 0.15 0.09 74 1015.5
20260506011003 62 268 3.0 10.0 0.00 0.15 0.09 74 1015.5
20260506010503 62 281 3.0 10.0 0.00 0.15 0.09 74 1015.5
20260506010003 63 277 1.0 7.0 0.00 0.15 0.09 72 1015.5
20260506005717 63 268 1.0 7.0 0.00 0.15 0.09 72 1015.6
20260506005003 62 269 3.0 9.0 0.00 0.15 0.09 75 1015.4
20260506004504 62 264 3.0 9.0 0.00 0.15 0.09 74 1015.5
20260506004003 62 259 4.0 12.0 0.00 0.15 0.09 75 1015.4
20260506003503 61 267 5.0 12.0 0.00 0.15 0.09 76 1015.4
20260506003003 61 271 4.0 11.0 0.00 0.15 0.09 75 1015.4
20260506002503 62 269 4.0 10.0 0.00 0.15 0.09 73 1015.3
20260506002003 62 268 2.0 10.0 0.00 0.15 0.09 73 1015.2
20260506001503 62 270 2.0 10.0 0.00 0.15 0.09 75 1015.2
20260506001003 62 279 2.0 7.0 0.00 0.15 0.09 74 1015.2
20260506000503 62 270 2.0 8.0 0.00 0.15 0.09 74 1015.2
20260506000003 62 244 3.0 9.0 0.00 0.15 0.09 75 1015.2
20260505235717 62 260 3.0 9.0 0.00 0.15 0.09 75 1015.2
20260505235003 62 277 3.0 10.0 0.00 0.15 0.09 76 1015.2
20260505234503 62 280 3.0 12.0 0.00 0.15 0.09 76 1015.1
20260505234216 62 272 3.0 12.0 0.00 0.15 0.09 76 1015.2
20260505233503 62 265 3.0 9.0 0.00 0.15 0.09 76 1015.3
20260505233003 62 270 3.0 7.0 0.00 0.15 0.09 75 1015.1
20260505232503 62 273 3.0 10.0 0.00 0.15 0.09 75 1015.2
20260505232003 63 269 3.0 10.0 0.00 0.15 0.09 72 1015.3
20260505231503 63 265 3.0 11.0 0.00 0.15 0.09 75 1015.2
20260505231003 63 265 3.0 11.0 0.00 0.15 0.09 74 1015.2
20260505230503 63 271 3.0 9.0 0.00 0.15 0.09 74 1015.2
20260505230215 63 273 4.0 11.0 0.00 0.15 0.09 75 1015.2
20260505225503 63 270 5.0 12.0 0.00 0.15 0.09 74 1015.2
20260505225003 63 268 4.0 12.0 0.00 0.15 0.09 74 1015.1
20260505224503 64 271 3.0 11.0 0.00 0.15 0.09 73 1015.2
20260505224003 63 267 4.0 11.0 0.00 0.15 0.09 74 1015.2
20260505223503 64 254 3.0 11.0 0.00 0.15 0.09 74 1015.1
20260505223003 64 254 2.0 7.0 0.00 0.15 0.09 75 1015.2
20260505222503 62 263 3.0 12.0 0.00 0.15 0.09 77 1015.2
20260505222003 62 267 4.0 12.0 0.00 0.15 0.09 77 1015.3
20260505221503 61 264 5.0 12.0 0.00 0.15 0.09 78 1015.1
20260505221003 61 265 4.0 12.0 0.00 0.15 0.09 78 1015.3
20260505220503 61 269 3.0 10.0 0.00 0.15 0.09 79 1015.3
20260505220003 61 276 3.0 10.0 0.00 0.15 0.09 78 1015.5
20260505215503 61 280 3.0 9.0 0.00 0.15 0.09 79 1015.4
20260505215003 61 271 3.0 12.0 0.00 0.15 0.09 80 1015.4
20260505214503 61 270 4.0 12.0 0.00 0.15 0.09 78 1015.4
20260505214003 61 271 4.0 11.0 0.00 0.15 0.09 78 1015.5
20260505213503 61 275 4.0 11.0 0.00 0.15 0.09 78 1015.5
20260505213003 61 275 4.0 8.0 0.00 0.15 0.09 78 1015.6
20260505212503 61 273 4.0 8.0 0.00 0.15 0.09 77 1015.6
20260505212003 61 272 4.0 10.0 0.00 0.15 0.09 78 1015.7
20260505211503 61 267 3.0 10.0 0.00 0.15 0.09 77 1015.7
20260505211003 61 269 3.0 10.0 0.00 0.15 0.09 77 1015.5
20260505210503 61 271 4.0 11.0 0.00 0.15 0.09 77 1015.7
20260505210003 61 275 4.0 12.0 0.00 0.15 0.09 77 1015.7
20260505205503 61 274 4.0 12.0 0.00 0.15 0.09 76 1015.6
20260505205003 61 273 3.0 11.0 0.00 0.15 0.09 75 1015.6
20260505204503 61 273 3.0 11.0 0.00 0.15 0.09 75 1015.6
20260505204003 61 270 4.0 10.0 0.00 0.15 0.09 74 1015.6
20260505203503 61 270 4.0 11.0 0.00 0.15 0.09 75 1015.7
20260505203003 62 273 3.0 11.0 0.00 0.15 0.09 73 1015.6
20260505202717 62 279 3.0 11.0 0.00 0.15 0.09 74 1015.6
20260505202003 62 276 4.0 12.0 0.00 0.15 0.09 74 1015.6
20260505201503 63 302 3.0 12.0 0.00 0.15 0.09 72 1015.7
20260505201003 63 306 3.0 10.0 0.00 0.15 0.09 72 1015.5
20260505200503 63 278 4.0 14.0 0.00 0.15 0.09 73 1015.6
20260505200003 63 272 4.0 14.0 0.00 0.15 0.09 73 1015.6
20260505195719 63 267 3.0 14.0 0.00 0.15 0.09 73 1015.7
20260505195216 62 279 3.0 10.0 0.00 0.15 0.09 75 1015.7
20260505194503 62 279 3.0 8.0 0.00 0.15 0.09 75 1015.8
20260505194003 62 270 3.0 8.0 0.00 0.15 0.09 75 1015.9
20260505193503 62 263 3.0 8.0 0.00 0.15 0.09 76 1015.8
20260505193003 62 262 3.0 8.0 0.00 0.15 0.09 74 1015.9
20260505192717 62 264 2.0 7.0 0.00 0.15 0.09 75 1015.8
20260505192218 61 271 2.0 7.0 0.00 0.15 0.09 75 1015.9
20260505191503 61 271 2.0 9.0 0.00 0.15 0.09 77 1015.9
20260505191003 60 275 3.0 9.0 0.00 0.15 0.09 77 1015.9
20260505190503 60 276 2.0 9.0 0.00 0.15 0.09 78 1015.7
20260505190003 60 272 3.0 10.0 0.00 0.15 0.09 80 1015.6
20260505185503 60 270 4.0 10.0 0.00 0.15 0.09 81 1015.7
20260505185003 60 266 3.0 9.0 0.00 0.15 0.09 80 1015.7
20260505184503 60 269 3.0 12.0 0.00 0.15 0.09 79 1015.7
20260505184003 60 267 4.0 12.0 0.00 0.15 0.09 80 1015.5
20260505183503 60 267 4.0 10.0 0.00 0.15 0.09 81 1015.6
20260505183003 60 268 3.0 10.0 0.00 0.15 0.09 82 1015.8
20260505182503 60 269 2.0 8.0 0.00 0.15 0.09 82 1015.7
20260505182218 60 273 2.0 8.0 0.00 0.15 0.09 81 1015.8
20260505181503 60 273 2.0 10.0 0.00 0.15 0.09 81 1015.7
20260505181003 60 272 2.0 10.0 0.00 0.15 0.09 82 1015.8
20260505180503 60 265 2.0 8.0 0.00 0.15 0.09 83 1015.7
20260505180003 59 263 3.0 8.0 0.00 0.15 0.09 83 1015.5
20260505175503 59 270 3.0 8.0 0.00 0.15 0.09 84 1015.5
20260505175003 59 279 3.0 7.0 0.00 0.15 0.09 85 1015.4
20260505174503 58 271 2.0 7.0 0.00 0.15 0.09 85 1015.3
20260505174003 58 265 3.0 8.0 0.00 0.15 0.09 85 1015.4
20260505173503 58 272 2.0 8.0 0.00 0.15 0.09 86 1015.4
20260505173003 58 273 2.0 6.0 0.00 0.15 0.09 86 1015.4
20260505172503 58 283 2.0 7.0 0.00 0.15 0.09 87 1015.3
20260505172003 58 292 2.0 7.0 0.00 0.15 0.09 87 1015.4
20260505171718 57 278 2.0 7.0 0.00 0.15 0.09 87 1015.3
20260505171003 57 264 2.0 7.0 0.00 0.15 0.09 87 1015.4
20260505170503 57 279 2.0 7.0 0.00 0.15 0.09 87 1015.2
20260505170003 57 277 3.0 7.0 0.00 0.15 0.09 88 1015.3
20260505165503 57 277 3.0 8.0 0.00 0.15 0.09 88 1015.3
20260505165219 57 278 3.0 8.0 0.00 0.15 0.09 88 1015.4
20260505164503 57 263 2.0 6.0 0.00 0.15 0.09 89 1015.3
20260505164003 57 274 1.0 6.0 0.00 0.15 0.09 89 1015.3
20260505163503 57 278 2.0 5.0 0.00 0.15 0.09 89 1015.3
20260505163003 56 271 2.0 5.0 0.00 0.15 0.09 89 1015.3
20260505162503 56 275 1.0 4.0 0.00 0.15 0.09 89 1015.4
20260505162003 56 289 1.0 3.0 0.00 0.15 0.09 89 1015.3
20260505161503 56 268 1.0 4.0 0.00 0.15 0.09 90 1015.2
20260505161003 56 266 1.0 5.0 0.00 0.15 0.09 90 1015.2
20260505160503 56 269 1.0 5.0 0.01 0.15 0.09 90 1015.0
20260505153003 55 264 1.0 4.0 0.01 0.15 0.09 91 1014.9
20260505152503 55 266 1.0 7.0 0.01 0.15 0.09 90 1014.9
20260505152217 55 285 1.0 7.0 0.01 0.15 0.09 90 1014.8
20260505151503 55 279 2.0 5.0 0.01 0.15 0.09 90 1014.9
20260505151003 55 270 2.0 6.0 0.01 0.15 0.09 90 1014.8
20260505150503 55 267 2.0 6.0 0.00 0.14 0.08 89 1014.9
20260505140503 55 269 1.0 4.0 0.00 0.14 0.08 89 1014.4
20260505125003 54 277 0.0 3.0 0.00 0.14 0.08 88 1014.2
20260505124503 54 292 0.0 3.0 0.00 0.14 0.08 88 1014.2
20260505124003 54 300 0.0 3.0 0.00 0.14 0.08 88 1014.2
20260505123717 54 271 1.0 3.0 0.00 0.14 0.08 88 1014.1
20260505123003 54 266 1.0 4.0 0.00 0.14 0.08 88 1014.0
20260505122503 54 280 1.0 4.0 0.00 0.14 0.08 88 1014.1
20260505122004 54 321 1.0 3.0 0.00 0.14 0.08 88 1014.1
20260505121503 54 319 1.0 3.0 0.00 0.14 0.08 88 1014.1
20260505121217 54 324 1.0 5.0 0.00 0.14 0.08 88 1014.1
20260505120503 54 287 1.0 5.0 0.00 0.14 0.08 88 1014.0
20260505120220 54 273 1.0 5.0 0.00 0.14 0.08 88 1014.0
20260505115716 54 284 1.0 4.0 0.00 0.14 0.08 88 1014.1
20260505115003 54 299 1.0 4.0 0.00 0.14 0.08 88 1014.0
20260505114503 54 296 0.0 4.0 0.00 0.14 0.08 88 1014.0
20260505114003 54 271 0.0 2.0 0.00 0.14 0.08 88 1014.0
20260505113503 54 269 0.0 2.0 0.00 0.14 0.08 88 1014.1
20260505113003 54 281 0.0 3.0 0.00 0.14 0.08 87 1014.1
20260505112503 54 330 0.0 3.0 0.00 0.14 0.08 87 1014.3
20260505112004 53 346 0.0 2.0 0.00 0.14 0.08 87 1014.4
20260505111504 53 276 1.0 4.0 0.00 0.14 0.08 87 1014.3
20260505111003 53 265 1.0 4.0 0.00 0.14 0.08 87 1014.2
20260505110503 53 258 0.0 2.0 0.00 0.14 0.08 87 1014.2
20260505102003 54 272 1.0 4.0 0.01 0.14 0.08 89 1014.1
20260505101503 54 280 1.0 4.0 0.01 0.14 0.08 89 1014.2
20260505101003 54 299 1.0 4.0 0.01 0.14 0.08 89 1014.3
20260505100503 54 310 0.0 2.0 0.02 0.14 0.08 89 1014.4
20260505100003 54 275 0.0 3.0 0.02 0.14 0.08 89 1014.4
20260505095715 54 273 1.0 3.0 0.02 0.14 0.08 89 1014.4
20260505095003 54 270 1.0 4.0 0.02 0.14 0.08 89 1014.4
20260505094717 54 272 1.0 4.0 0.02 0.14 0.08 89 1014.4